Location: Oregon Star Party
(44.2935°N, 120.1332°W)
Time: 11:50:35
(UTC-07:00)

Amateur Radio Satellites - All Passes

Search period start: 29 July 2014 11:20
Search period end: 30 July 2014 11:20
Location: Oregon Star Party, 44.2935°N, 120.1332°W

Satellite Date Start Highest point End Downlink Frequencies (MHz)
Time Altitude Azimuth
UKube-1 29 Jul 11:31:52 11:35:20 24° 295° (WNW) 11:38:48 145.840 MHz, 145.915 MHz
SO-50 29 Jul 11:32:26 11:33:58 12° 107° (ESE) 11:35:30 436.795 FM
HO-68 29 Jul 11:32:43 11:39:09 38° 298° (WNW) 11:45:34 435.675 MHz FM
Sapphire 29 Jul 11:38:30 11:42:00 18° 255° (WSW) 11:45:31 437.095 MHz 1200 baud AX-25 AFSK
KITSAT 1 29 Jul 12:08:03 12:12:53 17° 13° (NNE) 12:17:42 435.175 FM
RS-15 29 Jul 12:10:12 12:18:17 24° 101° (ESE) 12:26:13 29.354 - 29.394 USB, Beacon 29.352 USB
Oscar 11 29 Jul 12:17:19 12:19:52 16° 298° (WNW) 12:22:24 145.825 FM, Beacon 2401.500 USB
FUNcube-1 29 Jul 12:39:32 12:42:39 21° 294° (WNW) 12:45:48 145.950 - 145.970 MHz USB
Oscar 19 29 Jul 12:50:12 12:54:37 30° 66° (ENE) 12:59:04 437.125 CW, 437.150 USB
AO-Echo 29 Jul 13:03:05 13:07:00 21° 62° (ENE) 13:10:55 ?
JAS-1B 29 Jul 13:04:31 13:11:58 28° 53° (NE) 13:19:47 435.800 - 435.900 CW/SSB
SO-50 29 Jul 13:09:20 13:13:48 84° 305° (NW) 13:18:24 436.795 FM
Oscar 16 29 Jul 13:17:59 13:22:58 56° 71° (ENE) 13:27:59 437.025 USB, Beacon 2401.1428
UOSAT-12 29 Jul 13:29:39 13:31:56 14° 108° (ESE) 13:34:14 437.025 FM, 437.400 FM
ITAMSAT 1 29 Jul 13:40:10 13:45:02 41° 68° (ENE) 13:49:54 435.822 SSB
Uribyol 2 29 Jul 13:59:09 14:04:17 64° 72° (ENE) 14:09:26 436.500 FM
AO-27 29 Jul 13:59:12 14:04:20 62° 72° (ENE) 14:09:30 436.795 MHz FM
TMSAT-1 29 Jul 14:01:37 14:05:33 22° 62° (ENE) 14:09:29 436.925 FM
KITSAT 1 29 Jul 14:03:42 14:11:05 37° 41° (NE) 14:18:24 435.175 FM
RS-15 29 Jul 14:17:57 14:29:06 89° 123° (ESE) 14:40:06 29.354 - 29.394 USB, Beacon 29.352 USB
Gurwin Techsat 1B 29 Jul 14:25:01 14:30:02 44° 69° (ENE) 14:35:04 435.225 FM
Oscar 19 29 Jul 14:29:11 14:33:52 36° 263° (W) 14:38:35 437.125 CW, 437.150 USB
AO-Echo 29 Jul 14:40:05 14:45:19 59° 259° (W) 14:50:35 ?
AO-7 29 Jul 14:42:19 14:48:57 27° 52° (NE) 14:55:34 29.400 - 29.500 MHz
JAS-1B 29 Jul 14:52:11 15:01:11 88° 254° (WSW) 15:11:11 435.800 - 435.900 CW/SSB
SO-50 29 Jul 14:52:14 14:55:06 16° 326° (NW) 14:58:00 436.795 FM
Oscar 16 29 Jul 14:59:03 15:02:40 19° 268° (W) 15:06:19 437.025 USB, Beacon 2401.1428
Uosat F 29 Jul 15:01:20 15:04:37 18° 60° (ENE) 15:07:55 435.120 FM
UOSAT-12 29 Jul 15:06:49 15:11:26 78° 306° (NW) 15:16:10 437.025 FM, 437.400 FM
Saudisat 1A 29 Jul 15:07:32 15:10:58 22° 40° (NE) 15:14:22 436.775 MHz
ITAMSAT 1 29 Jul 15:20:16 15:24:39 27° 265° (W) 15:29:03 435.822 SSB
TMSAT-1 29 Jul 15:39:51 15:45:03 57° 259° (W) 15:50:18 436.925 FM
AO-27 29 Jul 15:40:47 15:44:16 18° 269° (W) 15:47:47 436.795 MHz FM
Uribyol 2 29 Jul 15:40:51 15:44:12 17° 269° (W) 15:47:34 436.500 FM
OPAL 29 Jul 15:53:35 15:55:52 13° 91° (E) 15:58:09 ?
KITSAT 1 29 Jul 15:59:02 16:07:02 66° 243° (WSW) 16:14:58 435.175 FM
Gurwin Techsat 1B 29 Jul 16:05:49 16:10:11 26° 266° (W) 16:14:35 435.225 FM
JAS-2 29 Jul 16:05:55 16:08:13 12° 50° (NE) 16:10:27 435.800 - 435.900 CW/SSB, 435.910 FM
AO-7 29 Jul 16:32:32 16:40:55 80° 253° (WSW) 16:49:20 29.400 - 29.500 MHz
RS-15 29 Jul 16:33:08 16:42:58 36° 331° (NNW) 16:52:49 29.354 - 29.394 USB, Beacon 29.352 USB
Uosat F 29 Jul 16:37:53 16:42:53 66° 258° (WSW) 16:47:56 435.120 FM
JAS-1B 29 Jul 16:46:14 16:52:58 23° 276° (W) 17:00:13 435.800 - 435.900 CW/SSB
Saudisat 1A 29 Jul 16:46:33 16:50:55 59° 239° (WSW) 16:55:14 436.775 MHz
UOSAT-12 29 Jul 16:49:28 16:52:23 16° 327° (NNW) 16:55:20 437.025 FM, 437.400 FM
Hamsat 29 Jul 16:59:42 17:02:14 16° 63° (ENE) 17:04:47 145.90 MHz
OPAL 29 Jul 17:30:15 17:35:20 82° 288° (WNW) 17:40:28 ?
JAS-2 29 Jul 17:44:23 17:51:50 52° 69° (ENE) 17:58:44 435.800 - 435.900 CW/SSB, 435.910 FM
KITSAT 1 29 Jul 17:57:51 18:00:51 13° 263° (W) 18:03:51 435.175 FM
AO-7 29 Jul 18:30:00 18:34:56 17° 272° (W) 18:39:55 29.400 - 29.500 MHz
SO-67 29 Jul 18:30:41 18:33:14 19° 68° (ENE) 18:35:48 435.3500 MHz FM
Hamsat 29 Jul 18:33:44 18:37:48 51° 261° (W) 18:41:55 145.90 MHz
RS-15 29 Jul 18:50:57 18:59:38 26° 6° (N) 19:08:24 29.354 - 29.394 USB, Beacon 29.352 USB
OPAL 29 Jul 19:11:17 19:13:27 13° 306° (NW) 19:15:37 ?
JAS-2 29 Jul 19:29:56 19:36:57 36° 265° (W) 19:43:36 435.800 - 435.900 CW/SSB, 435.910 FM
STRAND 1 29 Jul 19:54:43 19:59:51 79° 103° (ESE) 20:04:57 ?
SO-50 29 Jul 19:59:28 20:03:16 23° 40° (NE) 20:07:06 436.795 FM
SO-67 29 Jul 20:03:12 20:06:10 26° 264° (W) 20:09:09 435.3500 MHz FM
HO-68 29 Jul 20:14:57 20:21:34 42° 63° (ENE) 20:28:11 435.675 MHz FM
UKube-1 29 Jul 20:52:18 20:56:21 39° 69° (ENE) 21:00:25 145.840 MHz, 145.915 MHz
MaSat-1 29 Jul 21:02:30 21:06:20 39° 108° (ESE) 21:10:44 437.345 MHz
RS-15 29 Jul 21:05:14 21:15:41 46° 38° (NE) 21:26:24 29.354 - 29.394 USB, Beacon 29.352 USB
STRAND 1 29 Jul 21:35:29 21:38:24 16° 302° (WNW) 21:41:18 ?
Oscar 11 29 Jul 21:36:19 21:40:30 55° 73° (ENE) 21:44:44 145.825 FM, Beacon 2401.500 USB
SO-50 29 Jul 21:39:31 21:44:13 62° 239° (WSW) 21:48:58 436.795 FM
UOSAT-12 29 Jul 21:55:27 21:59:19 24° 40° (NE) 22:03:09 437.025 FM, 437.400 FM
FUNcube-1 29 Jul 22:00:39 22:04:36 37° 70° (ENE) 22:08:30 145.950 - 145.970 MHz USB
HO-68 29 Jul 22:02:33 22:09:15 42° 262° (W) 22:15:59 435.675 MHz FM
UKube-1 29 Jul 22:29:21 22:32:41 21° 266° (W) 22:36:02 145.840 MHz, 145.915 MHz
MaSat-1 29 Jul 22:40:06 22:43:49 27° 311° (NW) 22:47:58 437.345 MHz
AO-40 29 Jul 22:55:08 03:18:00 32° 187° (S) 08:22:55 Beacon 2401.320
Oscar 11 29 Jul 23:14:40 23:17:03 15° 270° (W) 23:19:26 145.825 FM, Beacon 2401.500 USB
RS-15 29 Jul 23:17:47 23:28:38 66° 243° (WSW) 23:39:53 29.354 - 29.394 USB, Beacon 29.352 USB
PCSat 29 Jul 23:30:25 23:32:56 13° 103° (ESE) 23:35:28 145.825 MHz
UOSAT-12 29 Jul 23:35:10 23:39:50 58° 240° (WSW) 23:44:25 437.025 FM, 437.400 FM
FUNcube-1 29 Jul 23:37:53 23:41:07 21° 266° (W) 23:44:20 145.950 - 145.970 MHz USB
ISS 29 Jul 23:48:15 23:51:32 59° 144° (SE) 23:54:51 145.800 FM
Oscar 10/S400 29 Jul 23:48:35 00:14:44 58° 171° (S) 08:56:01 145.825 - 145.975 CW/USB, Beacon 145.810 USB
Sapphire 30 Jul 00:37:10 00:42:18 47° 114° (ESE) 00:47:29 437.095 MHz 1200 baud AX-25 AFSK
PCSat 30 Jul 01:10:08 01:15:33 89° 301° (WNW) 01:21:01 145.825 MHz
ISS 30 Jul 01:25:23 01:28:26 32° 343° (NNW) 01:31:30 145.800 FM
Oscar 16 30 Jul 01:29:07 01:32:30 17° 91° (E) 01:35:53 437.025 USB, Beacon 2401.1428
RS-15 30 Jul 01:33:44 01:38:43 14° 264° (W) 01:43:48 29.354 - 29.394 USB, Beacon 29.352 USB
ITAMSAT 1 30 Jul 01:53:24 01:55:29 12° 88° (E) 01:57:33 435.822 SSB
Uribyol 2 30 Jul 02:11:13 02:14:57 20° 92° (E) 02:18:39 436.500 FM
AO-27 30 Jul 02:11:38 02:15:18 19° 92° (E) 02:18:57 436.795 MHz FM
Sapphire 30 Jul 02:21:09 02:25:55 31° 313° (NW) 02:30:43 437.095 MHz 1200 baud AX-25 AFSK
JAS-1B 30 Jul 02:38:08 02:46:09 32° 89° (E) 02:53:10 435.800 - 435.900 CW/SSB
Oscar 19 30 Jul 02:38:30 02:43:41 71° 103° (ESE) 02:48:50 437.125 CW, 437.150 USB
Gurwin Techsat 1B 30 Jul 02:40:53 02:43:57 15° 89° (E) 02:47:00 435.225 FM
AO-Echo 30 Jul 02:46:12 02:50:59 41° 97° (E) 02:55:35 ?
PCSat 30 Jul 02:55:57 02:59:45 19° 321° (NW) 03:03:34 145.825 MHz
ISS 30 Jul 03:03:05 03:05:50 23° 3° (N) 03:08:35 145.800 FM
Oscar 16 30 Jul 03:07:11 03:12:17 63° 288° (WNW) 03:17:23 437.025 USB, Beacon 2401.1428
OPAL 30 Jul 03:09:12 03:13:24 29° 63° (ENE) 03:17:38 ?
ITAMSAT 1 30 Jul 03:30:27 03:35:39 85° 285° (WNW) 03:40:49 435.822 SSB
Uribyol 2 30 Jul 03:49:44 03:54:46 55° 289° (WNW) 03:59:47 436.500 FM
AO-27 30 Jul 03:50:06 03:55:11 57° 289° (WNW) 04:00:14 436.795 MHz FM
TMSAT-1 30 Jul 03:54:00 03:59:11 51° 100° (E) 04:04:18 436.925 FM
Gurwin Techsat 1B 30 Jul 04:19:10 04:24:29 73° 287° (WNW) 04:29:45 435.225 FM
Oscar 19 30 Jul 04:19:11 04:22:27 17° 300° (WNW) 04:25:44 437.125 CW, 437.150 USB
AO-Echo 30 Jul 04:25:22 04:29:32 26° 296° (WNW) 04:33:36 ?
JAS-1B 30 Jul 04:27:59 04:37:22 67° 292° (WNW) 04:45:23 435.800 - 435.900 CW/SSB
AO-7 30 Jul 04:32:53 04:40:08 32° 95° (E) 04:47:17 29.400 - 29.500 MHz
KITSAT 1 30 Jul 04:38:09 04:42:12 15° 99° (E) 04:46:14 435.175 FM
ISS 30 Jul 04:39:51 04:43:07 45° 23° (NNE) 04:46:22 145.800 FM
Uosat F 30 Jul 04:44:16 04:48:48 33° 97° (E) 04:53:18 435.120 FM
OPAL 30 Jul 04:47:36 04:52:10 37° 260° (W) 04:56:46 ?
ITAMSAT 1 30 Jul 05:12:04 05:14:21 13° 304° (WNW) 05:16:38 435.822 SSB
MaSat-1 30 Jul 05:19:13 05:23:21 22° 47° (NE) 05:27:22 437.345 MHz
TMSAT-1 30 Jul 05:34:38 05:38:46 24° 297° (WNW) 05:42:52 436.925 FM
STRAND 1 30 Jul 05:35:10 05:38:43 19° 61° (ENE) 05:42:15 ?
Gurwin Techsat 1B 30 Jul 06:01:52 06:03:31 11° 305° (NW) 06:05:10 435.225 FM
ISS 30 Jul 06:16:44 06:19:45 31° 221° (SW) 06:22:46 145.800 FM
Hamsat 30 Jul 06:18:09 06:21:43 25° 94° (E) 06:25:16 145.90 MHz
JAS-1B 30 Jul 06:20:01 06:25:56 19° 314° (NW) 06:31:28 435.800 - 435.900 CW/SSB
Uosat F 30 Jul 06:23:07 06:27:32 32° 294° (WNW) 06:31:56 435.120 FM
AO-7 30 Jul 06:25:11 06:33:22 62° 295° (WNW) 06:41:29 29.400 - 29.500 MHz
KITSAT 1 30 Jul 06:28:08 06:36:11 73° 118° (ESE) 06:44:16 435.175 FM
JAS-2 30 Jul 06:38:33 06:43:47 32° 93° (E) 06:48:34 435.800 - 435.900 CW/SSB, 435.910 FM
Saudisat 1A 30 Jul 06:55:08 06:58:40 24° 114° (ESE) 07:02:13 436.775 MHz
MaSat-1 30 Jul 06:55:55 07:01:13 68° 246° (WSW) 07:06:12 437.345 MHz
STRAND 1 30 Jul 07:12:20 07:17:25 63° 258° (WSW) 07:22:32 ?
SO-67 30 Jul 07:25:43 07:28:13 18° 93° (E) 07:30:41 435.3500 MHz FM
Sapphire 30 Jul 07:41:27 07:44:01 13° 32° (NNE) 07:46:33 437.095 MHz 1200 baud AX-25 AFSK
Hamsat 30 Jul 07:53:52 07:57:42 32° 291° (WNW) 08:01:33 145.90 MHz
PCSat 30 Jul 08:13:56 08:18:00 21° 40° (NE) 08:22:02 145.825 MHz
AO-7 30 Jul 08:19:51 08:24:33 17° 317° (NW) 08:29:13 29.400 - 29.500 MHz
JAS-2 30 Jul 08:23:31 08:28:58 37° 295° (WNW) 08:33:55 435.800 - 435.900 CW/SSB, 435.910 FM
KITSAT 1 30 Jul 08:25:05 08:32:18 34° 321° (NW) 08:39:32 435.175 FM
Saudisat 1A 30 Jul 08:33:48 08:38:01 43° 312° (NW) 08:42:16 436.775 MHz
SO-67 30 Jul 08:58:19 09:01:19 27° 290° (WNW) 09:04:18 435.3500 MHz FM
Sapphire 30 Jul 09:23:22 09:28:42 54° 54° (NE) 09:34:00 437.095 MHz 1200 baud AX-25 AFSK
HO-68 30 Jul 09:28:04 09:34:34 36° 97° (E) 09:41:00 435.675 MHz FM
PCSat 30 Jul 09:56:37 10:02:05 81° 241° (WSW) 10:07:29 145.825 MHz
UKube-1 30 Jul 10:14:48 10:19:07 57° 101° (E) 10:23:23 145.840 MHz, 145.915 MHz
Saudisat 1A 30 Jul 10:18:11 10:18:46 10° 333° (NNW) 10:19:21 436.775 MHz
KITSAT 1 30 Jul 10:25:57 10:30:38 16° 349° (N) 10:35:20 435.175 FM
Oscar 11 30 Jul 10:58:17 11:02:39 89° 284° (WNW) 11:07:00 145.825 FM, Beacon 2401.500 USB
Sapphire 30 Jul 11:07:29 11:11:46 24° 252° (WSW) 11:16:01 437.095 MHz 1200 baud AX-25 AFSK
